Temperature
15 14 14 13 13 13 13 12 12 12 12 12 12 12 12 12 11 11 10 10 9 9 9 8 8 8 8 8 8 8 9 9 9 9 9 10 10 10 10 10 10 10 10
15 14 13 13 13 12 12 12 12 12 12 12 12 12 12 11 11 10 10 9 9 9 8 8 8 8 8 8 8 8 8 8 8 8 9 9 9 9 9 9 9 9 9
15 14 13 13 13 12 12 12 12 12 12 12 12 12 11 11 11 10 9 9 9 8 8 8 8 8 8 8 7 7 7 7 7 8 7 7 7 7 7 7 7 7 8
14 14 13 13 12 12 12 12 12 12 12 12 12 11 11 11 10 10 9 9 8 8 8 7 7 7 7 7 7 6 6 6 6 6 6 6 6 6 6 6 6 6 6
14 13 13 13 12 12 12 12 12 12 12 12 12 11 11 10 10 9 9 8 8 8 7 7 7 7 7 6 6 6 6 5 5 5 5 5 5 4 5 5 5 5 5
13 13 13 12 12 12 12 12 12 12 12 12 11 11 11 10 10 9 8 8 8 7 7 7 6 6 6 6 5 5 5 5 4 4 4 4 3 3 3 3 3 4 4
13 13 12 12 12 12 12 12 12 12 12 11 11 11 10 10 9 9 8 8 7 7 6 6 6 5 5 5 5 5 5 4 4 3 3 2 2 2 2 2 2 2 2
13 13 12 12 12 12 12 12 12 12 11 11 11 11 10 9 9 8 8 7 7 6 6 5 5 5 4 4 4 4 4 4 3 2 1 1 1 1 1 1 1 1 2
14 13 13 12 12 12 12 12 12 12 11 11 11 11 10 10 9 8 8 7 6 6 5 5 4 4 4 4 4 4 3 3 2 1 0 0 0 0 0 0 1 1 1
14 14 13 13 12 12 12 12 11 11 11 11 11 10 10 10 9 8 7 7 6 6 5 5 4 4 4 4 3 3 2 2 0 -0 -0 -0 -0 -0 -0 -0 -0 0 0
15 14 13 13 12 12 12 11 11 11 11 11 10 10 9 9 8 8 7 7 6 5 5 4 4 4 3 3 2 2 1 0 -1 -1 -1 -1 -1 -1 -1 -1 -1 -1 -1
15 14 13 13 12 12 11 11 11 11 10 10 10 9 9 8 8 7 6 6 5 5 5 4 4 3 2 2 2 1 0 -0 -1 -2 -2 -2 -2 -2 -2 -2 -2 -2 -2
15 14 13 12 12 11 11 11 10 10 10 9 9 8 8 7 7 6 5 4 3 4 4 4 3 2 1 1 0 -1 -1 -1 -2 -3 -3 -3 -3 -3 -4 -4 -3 -3 -3
15 15 13 12 11 11 10 10 10 9 9 8 8 7 7 6 6 5 4 3 2 2 2 2 2 1 -0 -1 -1 -1 -2 -2 -2 -3 -4 -4 -4 -5 -5 -5 -4 -4 -4
14 13 12 11 11 10 10 9 9 8 8 7 7 6 6 5 4 4 3 2 1 -1 -1 -0 0 -0 -1 -2 -2 -2 -3 -3 -3 -4 -4 -5 -5 -5 -6 -5 -5 -5 -5
13 12 11 10 10 9 8 8 8 7 7 6 6 5 5 4 3 3 2 1 -0 -1 -3 -2 -2 -2 -2 -2 -3 -4 -4 -4 -4 -4 -5 -6 -6 -6 -6 -6 -6 -5 -5
11 10 10 9 8 8 7 7 6 6 6 5 5 4 4 3 2 2 1 0 -1 -2 -3 -3 -3 -3 -3 -3 -3 -4 -4 -5 -5 -5 -5 -6 -6 -6 -6 -6 -6 -6 -6
10 9 9 8 7 6 6 5 5 5 4 4 3 3 2 2 1 1 0 -1 -1 -2 -3 -4 -4 -4 -4 -4 -5 -5 -5 -6 -6 -5 -6 -6 -6 -6 -6 -6 -6 -6 -6
9 8 7 6 5 5 4 4 3 3 3 3 2 2 1 0 0 -0 -1 -2 -2 -3 -4 -5 -6 -6 -6 -6 -6 -6 -7 -6 -6 -6 -6 -6 -6 -6 -6 -6 -6 -6 -6
7 6 5 5 4 4 3 3 2 2 2 1 1 0 -0 -1 -1 -2 -2 -3 -4 -5 -6 -6 -7 -7 -7 -7 -7 -8 -8 -7 -7 -6 -6 -6 -6 -6 -6 -6 -6 -6 -6
5 4 4 3 3 2 2 2 2 1 1 1 -0 -1 -1 -1 -2 -3 -4 -5 -6 -6 -7 -7 -8 -8 -8 -8 -8 -8 -9 -8 -7 -6 -6 -6 -6 -6 -5 -5 -6 -6 -6
3 2 2 2 2 1 1 1 1 1 0 -0 -1 -1 -2 -2 -3 -3 -5 -6 -7 -7 -8 -8 -8 -9 -9 -8 -9 -9 -9 -9 -9 -8 -8 -8 -7 -7 -6 -6 -6 -6 -7
1 1 1 1 1 1 1 1 0 -0 -1 -1 -2 -2 -2 -3 -4 -5 -5 -6 -7 -8 -8 -9 -9 -9 -9 -9 -9 -9 -9 -9 -9 -8 -8 -8 -7 -7 -6 -7 -6 -7 -6
0 0 1 1 1 1 0 -0 -1 -1 -2 -2 -2 -3 -4 -4 -5 -6 -7 -8 -8 -8 -8 -8 -9 -9 -9 -9 -9 -9 -9 -9 -9 -7 -8 -9 -7 -7 -7 -7 -6 -6 -6
0 0 0 0 -0 -1 -1 -1 -2 -2 -3 -3 -3 -4 -5 -6 -6 -7 -9 -9 -9 -8 -8 -9 -9 -9 -9 -9 -9 -9 -9 -9 -10 -8 -8 -9 -8 -8 -8 -6 -5 -6 -6
0 -0 -0 -1 -1 -2 -2 -3 -3 -3 -4 -4 -4 -5 -6 -7 -8 -9 -9 -9 -9 -9 -9 -9 -8 -8 -8 -8 -8 -8 -9 -10 -10 -10 -8 -9 -9 -10 -10 -8 -6 -6 -6
Wind_Speed
6 7 8 9 9 8 7 6 7 7 6 7 8 9 8 9 10 11 12 13 12 10 9 8 8 8 8 8 8 9 9 9 10 10 11 11 11 11 12 12 11 11 11
10 8 6 7 8 9 9 8 8 6 4 5 5 7 8 9 10 10 11 12 12 10 8 7 7 8 8 9 9 9 9 10 10 11 11 11 11 11 12 12 12 12 12
14 11 6 6 8 11 11 10 8 6 4 4 4 4 5 7 9 9 10 11 11 9 7 6 6 7 8 9 10 10 10 10 10 11 11 11 12 12 12 13 13 13 13
17 12 7 7 11 13 10 6 5 4 4 3 2 2 2 5 8 9 9 10 10 8 6 5 4 5 7 9 10 11 11 10 10 11 11 12 12 13 14 14 14 15 15
18 14 8 8 13 9 5 6 4 4 3 2 2 2 1 2 5 8 7 9 9 8 6 4 3 3 4 7 10 11 11 10 10 11 12 12 13 14 15 16 16 17 17
18 14 9 10 12 7 6 6 5 3 3 2 2 3 2 1 2 4 6 8 8 8 7 5 3 1 2 5 9 11 11 11 10 11 12 12 13 15 16 17 18 19 19
18 14 9 9 9 8 8 8 5 4 2 2 3 2 3 2 1 1 3 4 4 6 6 5 4 3 3 4 7 10 11 11 11 12 12 13 15 16 18 20 20 20 20
18 15 13 12 10 9 9 7 6 4 2 2 3 3 1 2 2 1 1 2 2 2 2 2 1 3 5 6 7 10 12 11 12 13 14 15 17 18 20 21 22 21 21
17 16 14 13 11 11 11 9 7 7 5 2 2 4 4 5 2 2 2 1 1 2 1 1 2 5 7 8 10 10 11 12 13 15 16 18 20 21 22 23 23 23 22
15 17 16 14 14 11 11 10 7 5 6 4 2 1 2 3 3 1 2 2 1 1 1 2 5 8 10 10 10 11 13 14 15 17 19 21 23 24 25 25 25 24 24
11 13 15 13 14 11 12 10 8 7 5 5 4 3 2 2 2 3 3 3 3 2 2 3 5 6 9 10 11 11 13 15 17 19 22 24 25 26 27 26 26 25 25
8 11 12 12 12 11 12 11 9 9 6 5 4 4 4 3 3 3 4 4 4 4 3 4 3 3 6 10 12 15 16 17 19 21 24 26 27 27 27 27 27 27 27
7 13 12 12 11 11 11 10 9 8 8 8 5 3 3 3 3 3 3 3 3 3 3 3 2 2 3 8 13 19 17 19 22 24 26 27 27 27 27 27 27 27 28
10 12 11 11 11 11 11 10 9 8 7 7 6 5 4 3 3 3 4 3 2 3 3 4 2 0 3 11 17 19 16 21 24 26 26 26 26 26 26 27 27 27 28
8 11 11 11 11 10 10 11 8 8 8 6 5 4 3 3 3 3 3 4 4 3 3 4 3 2 8 13 16 16 15 22 26 26 26 26 26 26 26 27 27 28 28
11 13 12 12 11 10 10 9 8 8 7 5 4 5 3 2 3 3 3 3 4 5 4 4 5 4 9 13 17 17 19 24 24 25 25 25 26 27 27 28 28 28 27
14 14 14 13 12 11 9 8 7 7 7 5 4 4 3 3 3 3 3 3 4 4 6 5 4 4 6 8 13 16 18 18 19 23 25 27 27 27 28 28 28 28 28
14 14 14 13 12 11 9 9 8 6 6 5 3 2 2 2 3 3 3 4 4 5 6 8 5 4 7 8 8 9 15 17 17 23 26 26 27 28 28 28 28 29 28
14 14 13 13 12 11 10 8 7 6 5 4 2 0 2 3 4 4 5 5 5 6 6 6 7 5 5 7 8 10 10 11 17 20 24 25 26 27 28 28 28 28 29
15 14 13 13 13 12 10 9 8 7 5 4 2 1 3 4 6 6 5 7 6 6 6 6 7 7 6 7 7 8 11 7 10 14 20 23 25 25 26 28 29 29 29
15 14 15 14 12 10 8 8 7 6 4 2 2 3 4 6 7 7 6 6 6 5 5 6 7 8 8 7 8 8 13 11 10 11 10 9 11 11 16 24 26 28 29
14 14 13 13 11 8 11 10 7 4 2 1 3 4 5 6 8 10 12 13 12 8 6 6 7 10 11 10 9 11 12 14 11 4 7 11 10 12 10 12 24 29 30
14 13 11 10 9 9 10 8 6 4 1 1 3 4 4 5 8 6 10 14 13 16 16 11 11 11 13 12 13 14 12 14 15 10 12 16 10 13 11 18 27 30 32
11 9 8 7 6 6 8 6 6 4 1 1 2 3 4 5 7 9 7 7 7 8 12 10 10 12 12 12 12 13 13 13 12 11 9 13 13 13 13 9 26 30 31
8 6 5 5 5 5 6 5 5 2 1 3 4 4 5 6 13 15 9 7 8 9 15 20 21 20 23 23 18 10 9 11 15 12 7 6 7 10 11 13 16 23 24
7 5 5 4 4 3 4 3 3 3 3 4 4 5 8 11 15 16 9 8 10 10 10 11 12 15 13 15 19 9 7 10 12 9 4 4 6 7 8 5 7 9 14
Wind_Direction
179 178 181 180 180 170 154 139 127 118 106 92 92 104 116 126 118 112 110 109 108 104 96 85 71 57 46 35 27 21 16 12 9 6 3 1 359 355 351 347 343 339 336
181 178 176 179 178 168 155 144 135 122 102 92 86 103 123 134 133 126 121 118 115 111 101 85 67 52 39 29 21 17 13 10 7 2 359 356 354 350 346 342 338 333 328
183 179 174 173 169 158 143 130 119 105 91 81 80 98 126 143 149 143 136 131 127 123 116 97 73 52 36 24 14 8 5 4 2 358 354 352 349 345 341 337 334 329 324
182 175 171 169 160 150 142 130 124 101 89 87 88 77 113 148 160 162 156 153 150 146 141 126 92 56 35 19 8 0 355 354 354 352 349 346 344 341 337 334 330 325 320
177 170 167 161 154 145 139 136 121 121 118 114 122 116 108 144 164 169 175 179 177 173 171 164 133 80 29 9 3 355 346 342 344 344 342 339 337 335 333 329 325 320 315
173 166 161 157 152 142 138 132 125 104 112 126 92 77 47 90 157 172 185 190 196 194 189 178 170 169 359 351 351 347 340 334 333 335 333 331 330 329 327 323 319 315 311
171 165 161 158 156 155 154 143 125 118 110 122 104 62 14 26 102 182 190 186 194 196 190 187 201 233 289 321 335 335 331 323 321 323 323 322 322 322 321 318 314 309 306
173 171 165 167 162 151 149 152 140 131 124 123 138 126 93 326 322 8 254 195 181 152 144 164 241 284 292 294 300 318 320 315 312 313 314 315 315 316 316 313 309 306 303
175 172 170 166 166 162 167 167 156 147 149 136 141 150 157 206 248 317 354 37 128 118 88 55 3 334 319 303 295 298 304 306 304 305 307 310 311 311 311 309 306 304 303
177 173 171 168 169 167 167 170 160 152 143 151 139 105 133 143 159 242 312 344 5 118 64 360 340 337 340 332 321 313 309 305 302 303 305 307 308 308 308 306 303 303 302
176 173 171 168 168 167 166 163 157 152 147 154 155 149 126 93 113 156 246 305 324 300 303 310 324 345 359 9 0 343 328 316 309 307 306 306 306 306 305 304 303 303 301
171 174 171 168 167 165 165 162 156 154 148 143 143 145 148 151 170 166 209 251 277 291 299 298 316 356 25 27 7 348 336 324 315 310 306 305 305 305 304 303 302 301 298
177 180 172 168 166 162 157 152 148 147 143 141 143 140 134 138 139 146 167 220 259 288 299 300 259 6 61 5 348 335 328 320 314 309 305 303 303 304 303 301 299 297 295
177 169 162 158 155 154 152 145 141 137 133 134 137 135 132 137 138 150 162 165 259 291 283 273 293 238 349 345 332 324 319 315 311 306 304 303 303 302 299 297 295 295 293
148 150 149 148 148 147 145 141 139 133 131 128 134 137 135 140 135 144 150 158 180 250 271 264 279 278 327 324 316 315 313 311 306 304 303 302 300 299 298 296 295 293 292
148 149 147 146 143 140 138 132 130 129 126 126 134 142 143 145 146 157 167 175 180 199 244 248 247 273 299 305 309 314 305 306 306 303 300 300 299 298 296 296 295 294 294
147 149 146 143 140 134 130 125 122 126 127 129 136 156 173 169 178 191 191 194 204 201 249 264 247 271 282 286 298 297 298 295 293 299 300 299 298 297 297 296 295 294 293
143 142 140 136 132 126 121 122 125 123 127 132 136 149 194 204 212 214 213 223 229 225 239 273 274 271 270 279 283 287 299 297 294 297 298 298 298 297 296 295 294 293 293
134 133 131 129 124 118 113 112 114 109 102 98 94 148 253 237 241 238 235 238 242 249 241 265 283 274 273 281 286 287 286 284 290 295 297 297 296 295 295 295 295 296 296
126 123 120 117 113 110 108 108 103 93 83 68 42 317 269 247 245 245 245 245 248 255 260 268 281 286 283 282 282 291 299 284 287 292 291 290 291 294 294 294 294 294 293
113 112 110 105 103 103 104 101 95 89 77 47 341 305 287 273 264 261 258 248 243 249 260 269 283 293 296 299 297 296 300 299 287 280 279 278 282 279 282 286 290 290 288
102 102 102 102 99 102 109 106 105 102 100 343 309 306 300 291 293 300 298 295 289 281 280 277 285 292 295 293 294 295 297 302 300 266 280 291 285 284 280 277 285 288 288
93 93 95 99 102 112 117 115 115 117 98 336 314 316 321 322 328 305 295 297 295 295 295 294 291 288 290 290 290 290 288 290 294 295 297 294 288 287 283 285 289 289 289
95 98 101 107 115 131 133 130 123 114 82 326 310 304 299 299 304 298 276 274 269 278 284 284 273 275 277 277 275 285 293 295 289 284 278 286 289 287 287 280 287 286 286
99 100 110 126 135 150 156 151 142 142 237 285 285 289 303 294 305 309 305 292 285 281 291 292 291 292 295 299 302 301 297 298 298 295 277 270 283 292 289 280 277 281 285
107 114 112 118 135 153 186 194 178 176 246 276 286 291 311 315 311 313 306 295 294 290 286 291 295 297 295 293 297 288 278 287 292 295 257 256 286 307 298 257 253 268 279
Height
1528 1530 1532 1533 1535 1536 1537 1537 1538 1538 1538 1538 1537 1537 1536 1536 1535 1535 1535 1534 1534 1534 1533 1533 1532 1531 1531 1530 1529 1528 1527 1526 1525 1524 1523 1522 1521 1521 1520 1519 1519 1519 1519
1526 1528 1530 1531 1533 1534 1535 1536 1537 1537 1537 1536 1536 1535 1534 1534 1534 1533 1533 1533 1533 1532 1532 1532 1531 1530 1529 1528 1527 1526 1525 1523 1522 1521 1520 1519 1518 1517 1517 1516 1515 1515 1514
1523 1525 1527 1529 1531 1532 1533 1534 1535 1535 1536 1535 1534 1533 1533 1532 1532 1532 1532 1532 1531 1531 1531 1530 1530 1529 1528 1526 1525 1524 1522 1521 1519 1518 1517 1516 1515 1514 1513 1512 1511 1511 1510
1520 1522 1524 1526 1528 1530 1531 1532 1533 1534 1534 1533 1532 1532 1531 1531 1530 1530 1530 1530 1530 1530 1529 1529 1528 1527 1526 1524 1523 1521 1520 1518 1516 1515 1513 1512 1511 1510 1509 1508 1507 1506 1505
1517 1519 1521 1524 1525 1527 1529 1530 1531 1532 1532 1531 1531 1530 1529 1529 1529 1528 1528 1529 1528 1528 1527 1527 1526 1525 1523 1521 1520 1518 1516 1515 1513 1511 1510 1508 1507 1506 1505 1503 1502 1501 1500
1513 1515 1518 1520 1522 1524 1526 1528 1529 1529 1530 1529 1529 1528 1528 1527 1527 1527 1527 1526 1526 1526 1525 1524 1523 1522 1520 1518 1516 1514 1513 1511 1509 1507 1506 1504 1503 1502 1500 1499 1497 1496 1495
1509 1511 1514 1517 1519 1521 1523 1525 1526 1527 1527 1527 1527 1526 1526 1525 1525 1525 1524 1524 1524 1523 1522 1521 1520 1519 1517 1515 1513 1511 1508 1507 1505 1503 1502 1500 1499 1497 1495 1494 1492 1491 1490
1504 1506 1509 1512 1515 1517 1520 1521 1523 1523 1524 1524 1524 1523 1523 1524 1522 1522 1522 1521 1521 1520 1519 1518 1517 1515 1513 1510 1508 1506 1504 1502 1500 1499 1498 1496 1495 1492 1490 1488 1487 1486 1484
1497 1500 1504 1507 1510 1513 1515 1517 1519 1520 1521 1521 1521 1521 1520 1519 1520 1519 1519 1518 1518 1517 1516 1515 1513 1511 1508 1506 1503 1501 1499 1497 1495 1494 1493 1491 1490 1487 1485 1483 1481 1479 1478
1492 1495 1498 1501 1504 1507 1510 1513 1515 1516 1517 1517 1517 1517 1517 1516 1516 1516 1516 1515 1514 1514 1513 1511 1510 1507 1504 1501 1499 1496 1494 1492 1490 1489 1488 1486 1484 1481 1478 1476 1474 1472 1470
1485 1488 1492 1495 1498 1501 1505 1508 1510 1511 1512 1513 1513 1513 1512 1512 1512 1512 1511 1511 1511 1510 1509 1507 1505 1502 1499 1496 1494 1491 1488 1486 1484 1483 1481 1479 1476 1473 1471 1468 1466 1464 1462
1478 1482 1485 1489 1492 1495 1499 1502 1505 1506 1508 1509 1509 1509 1508 1508 1507 1507 1506 1505 1505 1504 1503 1502 1499 1496 1493 1491 1488 1485 1482 1479 1477 1475 1472 1470 1468 1465 1462 1459 1457 1455 1453
1471 1474 1478 1481 1485 1489 1493 1496 1499 1501 1503 1504 1504 1504 1503 1503 1503 1502 1501 1500 1498 1496 1495 1495 1493 1491 1487 1485 1482 1479 1475 1472 1469 1466 1463 1461 1458 1455 1453 1450 1448 1446 1445
1464 1468 1471 1475 1479 1484 1487 1490 1493 1496 1498 1499 1499 1499 1499 1498 1498 1497 1496 1495 1492 1489 1488 1488 1486 1484 1481 1478 1475 1471 1467 1464 1461 1457 1454 1452 1449 1446 1443 1441 1439 1438 1436
1458 1461 1465 1470 1474 1478 1482 1485 1488 1490 1493 1494 1495 1495 1495 1494 1493 1493 1491 1490 1489 1484 1480 1479 1479 1477 1474 1471 1467 1463 1459 1455 1452 1449 1446 1443 1440 1437 1435 1433 1431 1429 1427
1451 1456 1460 1465 1469 1473 1477 1480 1484 1486 1488 1490 1491 1491 1491 1490 1489 1488 1486 1485 1482 1480 1475 1472 1472 1470 1467 1463 1460 1455 1451 1447 1444 1440 1437 1434 1432 1429 1427 1425 1422 1420 1418
1447 1451 1455 1460 1465 1469 1473 1477 1480 1482 1484 1486 1487 1487 1487 1486 1485 1483 1481 1479 1477 1474 1469 1465 1464 1462 1459 1455 1451 1447 1443 1439 1435 1432 1429 1426 1424 1421 1418 1416 1413 1411 1408
1442 1446 1451 1456 1461 1466 1470 1474 1477 1479 1481 1483 1483 1483 1482 1481 1480 1478 1476 1474 1471 1468 1464 1458 1455 1453 1451 1447 1443 1439 1435 1431 1428 1424 1421 1418 1415 1412 1409 1407 1404 1402 1399
1438 1443 1448 1453 1459 1463 1468 1471 1474 1476 1478 1479 1479 1478 1477 1476 1475 1473 1470 1468 1465 1462 1458 1453 1448 1446 1443 1440 1435 1431 1427 1423 1420 1416 1413 1409 1406 1403 1401 1398 1395 1392 1388
1436 1440 1446 1452 1457 1462 1466 1469 1472 1474 1475 1475 1474 1473 1472 1471 1470 1467 1465 1462 1459 1455 1452 1448 1443 1439 1436 1432 1428 1423 1417 1414 1411 1408 1405 1401 1398 1395 1392 1389 1385 1381 1378
1435 1440 1445 1451 1456 1461 1465 1468 1470 1470 1470 1469 1469 1468 1467 1466 1464 1462 1459 1456 1453 1449 1446 1442 1437 1433 1429 1426 1422 1417 1412 1406 1402 1400 1395 1392 1389 1384 1382 1379 1375 1371 1367
1436 1442 1447 1452 1457 1460 1463 1465 1466 1466 1466 1465 1465 1464 1463 1461 1458 1456 1453 1451 1448 1445 1440 1437 1432 1428 1423 1420 1416 1411 1406 1400 1394 1392 1388 1382 1381 1375 1372 1369 1365 1361 1357
1440 1445 1450 1455 1458 1459 1461 1462 1462 1463 1462 1462 1461 1460 1458 1455 1452 1449 1447 1444 1441 1438 1436 1433 1427 1422 1418 1414 1410 1405 1401 1396 1390 1386 1382 1372 1371 1366 1363 1358 1355 1351 1347
1445 1449 1452 1455 1457 1458 1458 1459 1460 1460 1460 1459 1457 1454 1452 1449 1446 1443 1440 1437 1434 1432 1429 1425 1421 1416 1413 1409 1406 1401 1396 1389 1383 1379 1376 1366 1361 1356 1351 1347 1345 1341 1337
1447 1451 1453 1455 1456 1457 1457 1457 1457 1457 1456 1455 1452 1450 1446 1443 1440 1437 1435 1431 1428 1425 1422 1418 1415 1411 1408 1404 1400 1395 1389 1382 1374 1369 1368 1361 1352 1346 1339 1335 1333 1331 1327
1449 1451 1453 1455 1456 1456 1456 1456 1454 1453 1452 1450 1447 1445 1441 1438 1435 1433 1430 1426 1421 1417 1414 1410 1407 1403 1400 1397 1393 1389 1383 1377 1369 1361 1357 1354 1346 1341 1328 1320 1320 1319 1315